Date String (YYYY-MM-DD hh:mm:ss) UTC,Instrument flags,Ambient pressure (hPa),Sample flow (lpm),Bypass flow (lpm),Sample temperature (°C),Ambient temperature (°C),ASC tube jacket temperature (°C),LED temperature (°C),Box temperature (°C),Sample RH (%),Span deviation,Mass concentration (μg/m³),Mass concentration (μg/m³),Mass concentration (μg/m³)
DateTimeUTC,F1_M11,P_M11,Q1_M11,Q2_M11,T1_M11,T2_M11,T3_M11,T4_M11,T5_M11,U1_M11,ZSPAN_M11,X0_M11,X2_M11,X1_M11
2021-09-19 15:00:00,,0824.1,4.99,0.00,29.7,27.2,00.0,38.7,31.1,16.6,0000.0,0003.71,0002.85,0002.55
2021-09-19 15:01:00,,0824.1,5.00,0.00,29.5,26.1,00.0,38.7,30.8,17.0,0000.0,0003.87,0002.86,0002.56
2021-09-19 15:02:00,,0824.1,5.00,0.00,29.5,26.4,00.0,38.6,30.9,17.4,0000.0,0005.36,0002.81,0002.49
2021-09-19 15:03:00,,0824.1,5.01,0.00,29.4,26.8,00.0,38.6,31.0,17.6,0000.0,0005.37,0002.77,0002.42
2021-09-19 15:04:00,,0824.1,5.00,0.00,29.4,27.2,00.0,38.6,31.0,17.8,0000.0,0005.26,0002.69,0002.35
2021-09-19 15:05:00,,0824.1,4.99,0.00,29.4,27.5,00.0,38.6,31.1,17.5,0000.0,0005.20,0002.61,0002.24
2021-09-19 15:06:00,,0824.1,5.01,0.00,29.4,27.8,00.0,38.5,31.1,16.9,0000.0,0005.32,0002.68,0002.29
2021-09-19 15:07:00,,0824.1,5.01,0.00,29.4,28.0,00.0,38.5,31.2,16.7,0000.0,0005.53,0002.84,0002.40
2021-09-19 15:08:00,,0824.1,4.99,0.00,29.5,28.2,00.0,38.5,31.2,16.8,0000.0,0005.82,0003.00,0002.53
2021-09-19 15:09:00,,0824.0,5.01,0.00,29.5,28.3,00.0,38.6,31.2,16.8,0000.0,0006.27,0003.12,0002.63
2021-09-19 15:10:00,,0824.1,4.99,0.00,29.5,28.4,00.0,38.6,31.3,17.1,0000.0,0006.57,0003.21,0002.75
2021-09-19 15:11:00,,0824.1,5.01,0.00,29.5,28.5,00.0,38.6,31.3,17.1,0000.0,0006.66,0003.25,0002.81
2021-09-19 15:12:00,,0824.1,4.99,0.00,29.6,28.6,00.0,38.6,31.3,17.1,0000.0,0006.85,0003.30,0002.85
2021-09-19 15:13:00,,0824.1,5.00,0.00,29.6,28.7,00.0,38.6,31.4,17.2,-001.6,0005.30,0003.36,0002.98
2021-09-19 15:14:00,,0824.1,5.01,0.00,29.6,28.8,00.0,38.6,31.4,17.1,-001.7,0005.42,0003.43,0003.12
2021-09-19 15:15:00,,0824.1,4.99,0.00,29.7,28.8,00.0,38.6,31.4,17.1,-001.4,0005.56,0003.51,0003.20
2021-09-19 15:16:00,,0824.1,5.01,0.00,29.7,28.9,00.0,38.7,31.5,17.0,-001.3,0005.62,0003.57,0003.27
2021-09-19 15:17:00,,0824.1,5.01,0.00,29.7,28.2,00.0,38.7,31.4,17.1,-001.0,0005.70,0003.59,0003.29
2021-09-19 15:18:00,,0824.1,5.00,0.00,29.6,26.5,00.0,38.7,30.9,16.9,-000.9,0005.81,0003.60,0003.29
2021-09-19 15:19:00,,0824.0,5.00,0.00,29.5,26.2,00.0,38.7,30.8,16.8,0000.0,0005.92,0003.58,0003.28
2021-09-19 15:20:00,,0824.0,5.01,0.00,29.4,26.6,00.0,38.6,30.9,17.0,0000.0,0005.78,0003.60,0003.29
2021-09-19 15:21:00,,0824.0,5.00,0.00,29.4,27.0,00.0,38.6,31.0,16.8,0000.0,0005.85,0003.63,0003.30
2021-09-19 15:22:00,,0823.9,5.00,0.00,29.4,27.4,00.0,38.6,31.0,17.0,0000.0,0005.93,0003.64,0003.30
2021-09-19 15:23:00,,0824.0,4.99,0.00,29.4,27.7,00.0,38.6,31.1,16.9,0000.0,0005.97,0003.66,0003.31
2021-09-19 15:24:00,,0824.0,5.00,0.00,29.4,27.9,00.0,38.5,31.1,16.7,0000.0,0006.10,0003.67,0003.31
2021-09-19 15:25:00,,0823.9,4.99,0.00,29.5,28.1,00.0,38.5,31.2,16.8,0000.0,0006.02,0003.65,0003.30
2021-09-19 15:26:00,,0824.0,5.00,0.00,29.5,28.3,00.0,38.5,31.2,16.8,0000.0,0006.05,0003.66,0003.31
2021-09-19 15:27:00,,0823.9,5.01,0.00,29.5,28.4,00.0,38.6,31.3,16.8,-000.1,0006.20,0003.70,0003.32
2021-09-19 15:28:00,,0824.0,4.99,0.00,29.6,28.5,00.0,38.6,31.3,16.9,0000.1,0006.27,0003.70,0003.32
2021-09-19 15:29:00,,0823.9,5.01,0.00,29.6,28.6,00.0,38.6,31.4,16.8,0000.7,0006.14,0003.68,0003.32
2021-09-19 15:30:00,,0823.9,4.99,0.00,29.6,28.7,00.0,38.6,31.4,16.8,0000.1,0006.10,0003.71,0003.32
2021-09-19 15:31:00,,0823.8,5.00,0.00,29.6,28.8,00.0,38.6,31.4,16.8,0001.0,0005.99,0003.69,0003.31
2021-09-19 15:32:00,,0823.9,5.00,0.00,29.7,28.8,00.0,38.7,31.5,16.5,0001.7,0005.98,0003.67,0003.30
2021-09-19 15:33:00,,0823.9,5.00,0.00,29.7,28.2,00.0,38.7,31.3,16.7,0001.5,0005.86,0003.68,0003.31
2021-09-19 15:34:00,,0823.8,5.00,0.00,29.5,26.5,00.0,38.6,30.8,16.8,0002.6,0005.66,0003.65,0003.30
2021-09-19 15:35:00,,0823.8,4.99,0.00,29.4,26.2,00.0,38.6,30.8,16.8,0001.3,0005.52,0003.63,0003.30
2021-09-19 15:36:00,,0823.8,5.01,0.00,29.4,26.6,00.0,38.6,30.9,16.9,0002.2,0005.89,0003.68,0003.32
2021-09-19 15:37:00,,0823.9,5.00,0.00,29.4,27.0,00.0,38.6,30.9,16.9,0001.8,0005.84,0003.68,0003.33
2021-09-19 15:38:00,,0824.0,5.00,0.00,29.4,27.3,00.0,38.5,31.0,17.0,0001.1,0005.75,0003.66,0003.33
2021-09-19 15:39:00,,0823.9,5.01,0.00,29.4,27.6,00.0,38.5,31.1,17.2,0000.3,0005.64,0003.65,0003.34
2021-09-19 15:40:00,,0823.9,4.98,0.00,29.4,27.9,00.0,38.5,31.1,17.3,0001.1,0005.79,0003.69,0003.36
2021-09-19 15:41:00,,0823.8,5.00,0.00,29.4,28.1,00.0,38.5,31.2,17.3,0000.5,0005.79,0003.68,0003.38
2021-09-19 15:42:00,,0823.9,5.01,0.00,29.5,28.3,00.0,38.5,31.2,17.2,0000.2,0006.19,0003.72,0003.41
2021-09-19 15:43:00,,0823.9,4.99,0.00,29.5,28.4,00.0,38.5,31.3,17.2,0000.6,0006.27,0003.74,0003.44
2021-09-19 15:44:00,,0823.9,5.01,0.00,29.5,28.5,00.0,38.5,31.3,17.1,0000.5,0006.35,0003.76,0003.46
2021-09-19 15:45:00,,0823.8,5.01,0.00,29.6,28.6,00.0,38.6,31.4,17.1,-000.1,0006.49,0003.80,0003.48
2021-09-19 15:46:00,,0823.8,4.99,0.00,29.6,28.7,00.0,38.6,31.4,17.3,0000.3,0006.66,0003.85,0003.50
2021-09-19 15:47:00,,0823.8,5.01,0.00,29.6,28.8,00.0,38.6,31.4,17.3,0000.0,0006.53,0003.88,0003.52
2021-09-19 15:48:00,,0823.8,5.00,0.00,29.7,28.9,00.0,38.6,31.5,16.7,0000.0,0006.70,0003.90,0003.54
2021-09-19 15:49:00,,0823.9,4.99,0.00,29.7,28.3,00.0,38.6,31.3,16.5,0000.0,0006.78,0003.92,0003.56
2021-09-19 15:50:00,,0823.9,5.00,0.00,29.5,26.5,00.0,38.6,30.9,17.2,0000.0,0006.86,0003.94,0003.57
2021-09-19 15:51:00,,0823.9,5.00,0.00,29.4,26.2,00.0,38.6,30.8,17.7,0000.0,0006.72,0003.93,0003.57
2021-09-19 15:52:00,,0823.9,5.01,0.00,29.4,26.6,00.0,38.6,30.9,17.6,0000.0,0006.72,0003.94,0003.57
2021-09-19 15:53:00,,0823.9,5.00,0.00,29.4,27.0,00.0,38.5,31.0,17.5,0000.0,0006.47,0003.93,0003.57
2021-09-19 15:54:00,,0824.0,5.00,0.00,29.4,27.4,00.0,38.5,31.0,17.4,0000.0,0006.37,0003.90,0003.55
2021-09-19 15:55:00,,0824.0,4.99,0.00,29.4,27.7,00.0,38.5,31.1,17.4,0000.0,0006.40,0003.90,0003.53
2021-09-19 15:56:00,,0824.1,5.01,0.00,29.4,28.0,00.0,38.5,31.1,17.5,0000.0,0006.38,0003.88,0003.52
2021-09-19 15:57:00,,0824.1,4.99,0.00,29.4,28.1,00.0,38.5,31.2,17.5,-001.9,0006.42,0003.88,0003.51
2021-09-19 15:58:00,,0824.1,5.01,0.00,29.5,28.3,00.0,38.5,31.2,17.5,-002.3,0006.38,0003.84,0003.49
2021-09-19 15:59:00,,0824.1,4.99,0.00,29.5,28.5,00.0,38.5,31.3,17.3,-001.6,0006.34,0003.81,0003.47
